Location: Azul
(36.7830°S, 59.8500°W)
Time: 11:32:05
(UTC-03:00)

DX 1 - Pass Details

Date: 25 October 2021
Orbit: 619 x 629 km, 98.4° (Epoch: 29 November)

Event Time Altitude Azimuth Distance (km) Brightness Sun altitude
Rises 20:19:00 0° 10° (N) 2,909 ? -10.8°
Reaches altitude 10° 20:21:11 10° 8° (N) 2,009 ? -11.2°
Maximum altitude 20:25:34 75° 282° (WNW) 662 ? -12.0°
Drops below altitude 10° 20:30:00 10° 196° (SSW) 2,033 ? -12.8°
Sets 20:32:13 0° 194° (SSW) 2,947 ? -13.2°
